Regional Weather Roundup
Issued by NWS Cleveland, OH

Home | Current Version | Previous Version | Graphics & Text | Print | Product List | Glossary On
Versions: 1 2 3 4 5 6 7 8 9 10 11 12 13 14 15 16 17 18 19 20 21 22 23 24 25 26 27 28 29 30 31 32 33 34 35 36 37 38 39 40 41 42 43 44 45 46 47 48 49 50
000
ASUS41 KCLE 300610
RWRCLE
OHIO REGIONAL WEATHER ROUNDUP
NATIONAL WEATHER SERVICE WILMINGTON, OH
200 AM EDT SAT MAY 30 2015

NOTE: "FAIR" INDICATES FEW OR NO CLOUDS BELOW 12,000 FEET WITH NO
SIGNIFICANT WEATHER AND/OR OBSTRUCTIONS TO VISIBILITY.

OHZ001>008-015>018-024>027-034-035-043-044-300700-
   NORTHWEST OHIO

CITY           SKY/WX    TMP DP  RH WIND       PRES   REMARKS
DEFIANCE       CLEAR     72  64  76 S8        29.99F
FINDLAY        PTCLDY    73  65  75 S10       30.02F
TOLEDO EXPRESS CLEAR     72  64  76 SW7       29.99F
TOLEDO EXEC    CLEAR     73  63  70 S12       30.00F
LIMA           PTCLDY    72  64  76 S10       30.04S
$$

OHZ009>014-019>023-028>033-038-089-300700-
   NORTHEAST OHIO

CITY           SKY/WX    TMP DP  RH WIND       PRES   REMARKS
CLE-HOPKINS    PTCLDY    74  63  68 S10       30.05S
CLE-LAKEFRONT  PTCLDY    77  62  59 S12       30.02S
CUY CO. ARPT   NOT AVBL
LORAIN-ELYRIA  PTCLDY    72  64  76 SW8       30.04S
ASHTABULA      MOCLDY    70  65  84 S7        30.06F
AKRON-CANTON   CLOUDY    73  64  73 S9        30.08F
WOOSTER        MOCLDY    71  63  75 S9        30.08S
MANSFIELD      MOCLDY    71  63  75 S15       30.07S
YOUNGSTOWN     CLOUDY    71  65  81 S7        30.08F
$$

OHZ042-051>053-060>062-070>072-077>081-300700-
  SOUTHWEST OHIO

CITY           SKY/WX    TMP DP  RH WIND       PRES   REMARKS
CINC-COVINGTON PTCLDY    70  65  84 S7        30.07S
CINC-LUNKEN    PTCLDY    69  66  90 SW5       30.07F
HAMILTON       PTCLDY    68  67  96 CALM      30.07S
DAYTON         CLOUDY    73  67  81 S7        30.07S
WRIGHT-PAT AFB PTCLDY    72  67  84 S6        30.06S
DAYTON GENERAL CLEAR     71  67  87 S8        30.06S
WILMINGTON     PTCLDY    69  64  84 S7        30.07F
$$

OHZ036-037-039>041-045>050-054>059-063>069-073>076-082>088-300700-
  CENTRAL AND SOUTHEAST OHIO

CITY           SKY/WX    TMP DP  RH WIND       PRES   REMARKS
COLUMBUS       CLOUDY    71  65  81 S3        30.07F
OSU AIRPORT    PTCLDY    72  65  78 S7        30.07S
BOLTON FIELD   NOT AVBL
RICKENBACK AFB PTCLDY    70  66  87 S7        30.07S
NEWARK         CLEAR     71  63  75 S5        30.08S
MARION         MOCLDY    73  64  73 S14       30.06S
LANCASTER      MOCLDY    73  65  75 S9        30.09S
ZANESVILLE     PTCLDY    69  63  81 S7        30.09F
NEW PHILLY     MOCLDY    74  64  71 VRB3      30.09F
$$


USA.gov is the U.S. government's official web portal to all federal, state and local government web resources and services.